GFSCGP_prec_cloud_273.txt.gz
Cloud_Cover
0 0 0 0 0 0 0 0 1 68 48 38 90 91 98 50 22 97 100 100 100 98 99 89 100 97 100 100 100 100 100 81 7 1 9 71 96 99 68 27 69 93 93 92
0 0 0 0 0 0 0 0 1 49 61 34 99 100 100 97 44 85 100 98 94 98 73 96 71 23 10 5 2 4 6 65 76 4 0 0 3 8 53 55 50 17 5 5
0 0 0 0 0 0 0 0 4 5 51 66 42 39 61 95 100 92 100 99 79 76 84 29 5 4 62 24 6 65 2 10 2 0 3 4 3 5 6 7 5 0 6 5
0 0 0 0 3 0 0 0 0 0 0 10 0 9 40 55 100 100 53 92 79 74 100 96 93 5 5 5 0 3 5 4 0 2 4 4 0 0 0 0 0 0 0 0
0 0 0 2 0 0 0 0 0 1 5 0 61 1 5 83 90 78 59 56 37 93 30 5 5 6 11 18 13 5 2 0 0 0 0 0 0 0 0 0 0 0 0 0
5 5 5 0 0 0 0 0 0 0 0 0 0 0 9 58 14 46 66 74 66 55 41 60 33 36 8 5 5 5 5 3 0 0 0 4 1 0 0 0 0 0 9 3
0 4 4 5 4 4 5 5 2 2 0 0 0 2 0 53 73 90 62 68 95 99 100 97 69 77 18 56 13 5 5 3 0 0 4 5 5 0 0 1 0 0 5 5
4 5 5 5 3 4 5 1 0 0 1 2 5 0 46 100 87 78 70 100 100 100 100 100 97 20 54 33 96 25 5 5 3 5 14 5 5 5 5 5 5 5 4 41
1 4 5 5 4 1 4 5 0 0 0 0 0 0 50 100 93 57 100 90 100 100 100 97 80 90 93 18 94 5 5 5 5 94 64 62 9 38 6 9 83 100 97 74
41 79 16 3 5 4 5 1 0 0 1 0 0 0 72 89 100 100 99 100 100 100 100 90 82 57 27 100 22 5 5 5 50 82 69 77 93 85 88 62 64 40 48 45
13 5 4 4 5 5 2 1 0 0 0 5 18 57 100 92 85 91 100 100 100 100 96 100 8 100 100 34 5 5 9 79 79 75 86 84 72 98 100 100 98 91 53 69
100 17 5 5 4 3 5 1 0 5 28 5 30 52 7 61 49 33 81 100 100 38 66 80 100 42 67 5 5 14 100 100 100 99 100 100 100 96 82 100 98 100 99 70
35 69 15 5 5 5 0 0 0 0 5 5 4 58 3 39 5 5 5 38 99 81 62 65 56 7 5 5 31 100 100 100 100 100 100 100 93 74 100 100 100 97 100 98
5 36 7 5 5 2 0 4 5 5 5 5 2 2 5 5 10 15 32 88 13 91 100 88 5 5 11 26 98 99 100 100 100 100 100 96 100 86 84 100 100 100 100 100
8 11 5 5 5 5 5 5 9 79 10 15 4 5 5 5 5 8 32 42 100 100 32 5 4 19 76 100 65 100 100 100 100 74 71 99 100 100 100 100 100 100 93 96
5 5 5 5 6 12 5 5 5 5 3 2 5 8 18 5 5 55 100 100 100 95 4 6 27 30 62 100 100 100 100 100 99 26 83 100 100 100 100 100 100 100 100 100
39 23 73 100 70 54 41 5 4 0 0 0 28 19 59 5 5 12 64 99 78 5 5 34 6 70 100 100 100 100 97 44 7 83 96 100 100 100 100 94 75 84 100 81
22 21 93 63 40 7 5 5 0 0 0 0 1 16 16 5 4 16 41 18 5 5 46 100 73 100 100 100 100 100 28 68 92 100 99 87 96 100 100 100 100 100 100 100
5 5 0 4 5 1 1 2 2 5 1 0 0 0 2 4 12 5 5 5 5 18 100 83 100 100 100 100 99 90 100 100 100 100 100 84 100 100 100 100 100 100 100 100
5 5 0 0 0 2 0 0 0 0 2 0 0 0 0 2 5 7 42 59 6 100 100 100 100 100 100 89 69 100 100 100 100 100 100 100 89 92 90 100 100 100 100 100
4 5 5 1 0 4 5 5 4 1 0 0 0 0 0 3 4 45 83 44 84 78 100 100 99 100 99 96 100 100 100 100 100 100 100 100 99 100 100 100 82 94 100 100
5 5 10 0 5 20 54 5 4 0 0 0 0 0 0 2 4 71 34 90 100 100 100 100 100 100 100 100 100 100 100 100 100 100 100 100 77 100 100 97 80 99 86 98
81 84 7 5 30 68 16 5 0 0 0 0 0 0 0 2 5 49 55 100 100 100 100 100 100 58 100 100 100 100 100 100 100 93 100 100 100 100 84 88 90 91 100 100
89 100 38 51 86 19 5 0 0 0 0 0 0 0 0 5 5 44 100 100 100 89 94 100 100 57 92 100 100 100 100 100 54 73 76 100 94 100 54 99 98 79 95 100
100 78 100 60 14 5 4 0 0 0 0 0 0 0 3 5 5 96 100 100 94 100 96 100 100 86 100 100 97 88 100 24 89 19 6 42 15 57 8 100 66 21 8 57
100 100 100 95 7 5 5 5 0 0 0 0 0 2 4 5 18 94 100 97 84 98 100 100 100 100 100 100 100 56 67 39 66 63 100 98 53 38 60 30 54 83 87 27

GFSCGP_prec_cloud_276.txt.gz
Cloud_Cover
0 32 69 6 0 0 0 0 0 0 0 0 0 21 78 100 100 98 100 100 100 100 100 100 98 100 100 67 8 5 0 0 0 0 3 5 5 11 51 91 100 100 100 82
0 0 0 0 0 0 0 0 2 0 0 0 4 94 100 99 97 87 100 100 89 62 100 90 100 95 57 47 5 3 2 0 1 4 2 6 12 17 39 98 71 76 12 13
2 0 0 0 0 2 0 2 0 0 0 0 4 36 99 100 89 100 82 72 98 82 74 87 100 100 46 5 7 5 5 5 29 5 0 1 5 18 48 36 46 68 100 99
0 0 0 0 0 0 100 0 0 0 0 42 0 1 5 34 99 100 100 100 100 99 67 85 92 100 50 78 87 15 8 16 5 5 5 1 28 66 91 99 100 36 100 48
0 0 0 0 0 0 0 0 0 0 0 0 29 2 100 58 100 100 100 100 98 86 99 28 76 38 88 75 30 5 1 3 1 0 2 11 56 68 91 92 88 100 100 100
3 4 4 5 5 0 0 2 0 0 2 52 40 0 95 43 47 88 99 100 100 99 80 99 100 98 94 100 23 5 5 4 65 70 74 99 37 7 19 32 58 100 98 76
49 58 6 3 14 4 1 4 14 33 43 100 8 2 69 40 34 96 71 97 86 82 97 100 100 100 71 6 5 7 28 97 100 84 100 94 29 21 78 58 63 32 87 63
93 84 3 5 5 1 0 0 5 2 2 5 18 78 92 92 100 92 84 23 99 100 96 78 96 22 55 97 5 5 87 100 87 100 16 32 72 69 67 52 49 65 76 44
7 35 5 2 5 5 0 5 5 5 5 17 73 16 52 100 68 100 94 99 100 98 28 100 98 62 92 100 46 100 100 100 100 100 100 100 74 100 100 100 92 99 92 99
4 4 1 5 4 5 5 5 5 5 4 3 88 84 34 100 99 99 61 60 33 53 46 99 98 84 100 26 93 100 100 88 76 55 100 93 98 72 72 90 53 97 77 96
5 4 8 5 5 5 5 5 5 5 5 47 53 46 54 97 54 61 35 37 22 27 99 46 85 53 66 95 100 100 54 10 92 94 93 96 52 50 87 97 54 96 54 97
35 5 5 5 5 5 5 5 5 27 67 46 14 66 38 32 36 52 7 28 44 57 21 5 20 66 100 100 100 82 87 100 100 100 75 31 97 78 85 83 100 47 48 100
48 87 52 8 75 48 20 22 22 6 20 76 35 77 10 35 60 2 12 31 24 11 16 7 59 99 100 92 100 99 100 97 97 62 38 96 67 100 88 94 100 95 64 32
100 100 90 61 30 6 23 6 20 43 50 52 94 41 100 65 4 13 22 40 20 45 30 100 92 100 100 96 99 100 100 95 47 81 77 95 100 98 100 93 100 97 71 98
28 9 7 5 17 48 35 25 49 24 20 48 13 86 80 5 33 44 13 10 10 93 97 100 100 100 100 100 100 100 88 46 100 65 99 100 99 97 53 99 100 100 94 79
0 3 4 4 0 0 5 5 5 5 5 66 84 100 5 5 5 2 4 9 96 100 100 100 100 100 100 100 98 99 100 100 99 94 97 100 100 100 95 100 100 76 97 100
0 2 3 31 3 7 82 5 5 5 72 6 71 33 23 94 87 39 84 77 82 84 100 95 100 100 100 97 94 100 100 100 72 79 100 93 100 100 100 100 93 100 61 97
3 4 5 3 5 61 16 5 4 5 37 6 16 5 5 5 22 67 80 33 89 100 32 100 88 100 99 57 100 100 100 99 99 100 99 93 94 100 100 100 100 100 100 100
0 26 4 4 22 67 84 10 6 7 43 5 4 5 2 0 3 96 66 46 79 13 39 63 72 100 100 100 100 100 100 100 100 90 100 100 100 99 100 100 100 98 100 100
5 5 5 74 100 100 43 5 5 6 96 3 4 5 5 5 38 65 77 96 98 97 58 69 96 100 95 100 100 100 100 100 100 92 76 100 100 97 57 72 92 65 94 100
94 7 97 100 100 100 10 6 8 71 5 0 0 3 5 7 5 10 60 100 69 100 85 100 99 100 100 100 100 100 100 100 100 100 82 100 100 60 55 93 100 99 100 100
94 100 98 100 100 93 12 97 45 5 0 0 0 4 5 6 37 98 100 99 98 100 100 100 52 100 94 100 100 100 100 94 100 100 100 100 56 8 27 87 84 100 100 100
100 100 83 98 100 72 100 78 8 0 0 0 0 3 3 31 99 98 90 100 100 100 100 100 96 100 100 100 100 100 95 100 99 100 100 61 29 48 17 38 92 99 68 99
100 65 99 100 100 98 92 21 5 0 0 0 0 4 5 14 97 88 61 76 86 96 100 92 99 100 100 100 95 98 100 100 87 100 78 75 92 94 89 97 58 100 51 95
100 97 96 100 76 100 23 5 0 0 0 0 0 3 5 43 87 82 30 93 79 82 71 64 96 100 96 79 99 73 93 78 95 100 96 5 8 92 74 5 5 5 5 21
86 100 100 99 100 15 5 5 5 0 0 0 1 4 5 68 38 16 70 86 67 96 63 86 99 70 100 58 100 98 100 100 78 9 66 80 61 81 86 17 6 59 0 0

GFSCGP_prec_cloud_279.txt.gz
Cloud_Cover
0 83 96 100 42 44 25 1 4 0 0 0 0 0 0 6 99 100 100 94 100 100 100 73 52 74 74 80 100 100 100 31 0 0 0 0 4 5 7 50 76 51 91 74
46 96 55 2 0 5 76 86 100 65 0 0 2 0 0 0 29 6 100 94 66 100 86 100 100 83 86 100 100 100 96 22 9 2 0 4 3 5 62 100 95 100 100 83
100 39 0 0 59 16 99 86 5 2 0 0 81 5 3 33 90 75 95 87 100 100 88 100 67 42 76 100 92 100 100 63 34 5 15 26 9 37 44 31 61 100 52 100
4 0 0 5 96 2 87 62 4 5 5 31 5 53 94 78 100 100 82 68 100 99 100 95 100 100 100 100 100 100 84 63 48 4 11 21 100 100 100 99 100 100 98 81
100 43 56 97 1 4 29 0 0 3 13 100 100 66 100 95 98 99 99 100 72 100 100 99 100 100 100 100 100 100 100 100 100 2 94 87 29 94 100 97 73 14 79 20
62 5 3 6 5 5 5 6 96 97 84 7 16 85 54 42 29 26 100 97 100 100 99 100 100 99 85 83 100 100 100 100 97 85 68 92 22 80 20 82 58 92 100 99
98 74 26 5 5 96 74 68 30 100 46 95 93 97 97 90 58 100 100 100 99 88 52 49 53 100 100 22 8 68 61 100 31 48 54 23 21 35 77 80 78 100 84 53
100 52 60 5 5 4 3 92 100 42 0 4 72 86 80 16 55 76 51 99 79 99 96 83 100 93 41 15 94 76 76 38 83 72 42 91 100 69 30 44 48 69 85 93
96 92 85 0 0 5 5 1 3 5 50 100 86 73 100 62 57 14 59 76 5 60 100 100 100 28 98 64 100 100 100 100 100 92 96 78 50 97 88 90 48 96 64 80
52 11 78 5 18 67 15 35 77 19 89 23 100 52 100 100 100 86 100 84 84 100 100 100 40 4 65 100 100 100 100 100 97 100 84 80 100 100 70 68 60 82 33 66
5 5 58 21 42 46 98 77 5 21 58 47 88 50 95 99 100 74 96 99 100 100 100 56 62 95 18 5 76 100 100 64 100 87 71 69 80 84 46 100 78 77 96 75
5 5 5 13 76 95 5 5 5 40 54 93 68 79 21 75 90 100 100 97 96 99 97 96 64 5 5 5 73 100 58 100 90 71 89 89 90 50 96 92 100 31 30 76
46 94 100 72 33 100 5 5 5 5 17 94 65 42 90 23 55 72 99 99 100 21 62 55 42 60 14 76 49 96 55 84 99 40 76 79 52 45 81 98 100 100 89 65
37 8 5 4 45 21 5 5 5 5 15 9 90 94 23 100 83 100 100 97 26 71 93 67 20 42 100 100 94 66 100 68 79 93 100 57 93 89 98 60 98 88 91 93
0 14 23 5 5 4 5 5 5 5 5 37 54 43 69 96 32 75 70 61 77 93 67 64 68 96 100 98 100 100 44 98 80 100 91 100 31 99 85 100 100 93 100 75
4 100 59 60 1 5 5 5 16 6 12 58 31 88 85 56 44 98 83 92 32 56 10 100 100 100 100 96 81 100 99 83 100 45 100 100 100 62 98 77 99 79 100 96
74 88 37 100 1 10 97 97 98 100 14 28 5 34 5 96 92 100 100 58 69 44 100 100 100 100 99 100 91 94 100 89 68 97 99 100 82 78 70 54 47 85 87 100
99 80 74 81 11 99 84 100 100 100 57 7 5 5 5 5 5 60 99 33 94 88 100 80 98 100 99 100 94 100 99 95 98 100 100 63 71 72 83 67 82 70 66 100
66 41 99 60 20 28 100 100 100 99 39 33 8 4 5 5 62 53 100 100 70 100 95 81 99 100 95 49 100 100 98 93 98 100 94 93 66 100 98 80 69 69 100 72
57 80 28 7 57 100 100 100 100 69 100 100 6 5 5 5 86 53 100 41 89 58 96 49 99 98 54 68 88 100 100 64 100 100 98 61 100 98 27 15 26 75 10 16
87 88 91 100 100 100 100 100 86 100 64 5 4 5 5 6 5 46 15 48 35 49 58 62 99 54 26 73 96 100 100 65 88 97 15 77 100 97 100 48 68 98 96 62
88 100 100 100 100 85 100 92 100 40 5 5 5 5 5 6 78 98 95 39 7 96 55 43 100 63 98 95 96 86 92 100 90 55 50 64 70 88 98 99 100 88 98 100
100 100 100 100 89 64 100 100 84 8 5 4 5 5 5 33 92 63 98 32 64 100 99 54 100 96 90 98 94 99 69 100 83 81 96 99 67 94 94 69 24 99 100 97
100 100 100 98 96 100 100 99 28 8 5 4 5 5 5 56 84 100 100 100 100 80 51 94 100 98 59 93 100 86 53 100 100 100 71 78 96 96 21 87 4 4 14 88
100 100 98 100 100 100 99 40 5 5 5 4 2 5 6 70 98 90 73 71 54 98 33 97 43 67 94 39 93 96 100 98 92 78 100 100 97 92 53 24 0 0 2 13
96 75 99 100 100 86 7 11 7 5 5 5 5 5 10 97 100 85 97 75 40 39 71 82 77 81 17 78 77 67 72 100 100 100 98 95 43 97 100 8 0 7 5 3

GFSCGP_prec_cloud_285.txt.gz
Cloud_Cover
0 0 2 48 95 7 11 43 5 100 3 0 47 85 100 100 100 100 100 100 100 100 81 32 28 5 100 50 4 4 4 5 59 5 1 0 66 33 8 100 100 100 100 100
1 3 49 72 5 26 14 7 34 5 2 1 8 77 100 100 100 100 100 100 100 100 100 100 94 100 86 99 100 99 85 5 0 5 5 2 0 0 86 100 100 100 99 36
95 76 72 76 8 33 14 0 6 5 5 94 43 96 100 100 100 100 100 100 100 100 100 100 100 91 98 100 100 100 78 5 4 47 52 3 0 4 5 18 79 89 100 100
42 4 2 72 10 5 23 5 5 5 5 33 55 99 56 62 78 100 100 100 100 100 100 100 46 7 49 67 26 95 97 74 88 72 7 5 5 15 41 64 94 83 99 100
14 21 5 5 5 10 5 5 5 10 4 5 67 51 100 28 41 100 100 100 100 100 87 21 74 100 100 66 78 100 100 44 5 5 8 40 8 64 75 100 98 100 100 100
5 5 28 7 64 92 5 5 6 5 1 3 5 5 100 64 100 100 99 99 100 92 66 70 82 100 86 100 99 51 7 5 6 5 100 94 95 46 98 93 98 90 84 64
24 5 60 83 87 87 10 0 2 6 72 2 0 14 98 75 100 100 95 96 96 51 100 100 100 32 3 5 6 68 36 5 31 100 39 29 6 5 5 5 5 8 19 7
41 100 100 97 36 64 5 5 2 3 2 5 5 88 84 100 100 57 45 50 38 19 94 49 9 5 15 49 16 59 100 100 70 98 17 30 5 5 5 5 5 16 92 70
61 40 87 61 96 16 16 5 4 2 0 34 73 81 78 100 96 100 100 97 4 29 5 5 5 5 5 5 1 1 4 51 6 21 75 9 5 5 5 58 62 5 6 83
68 2 35 41 84 26 43 8 3 0 1 6 97 49 99 100 100 100 32 5 5 5 5 4 0 2 2 0 4 10 55 100 99 24 27 63 39 42 77 84 63 100 93 100
30 16 61 5 90 10 5 0 0 1 58 58 7 100 100 100 100 95 44 66 32 2 0 3 0 3 0 1 7 94 86 100 54 86 19 100 80 96 100 82 96 100 99 100
100 100 74 5 7 3 5 10 2 0 3 3 6 100 100 100 100 91 44 53 5 5 0 0 0 5 5 5 100 8 100 100 91 11 26 47 60 24 100 75 91 73 85 62
12 35 2 11 26 36 83 7 3 5 12 5 5 88 100 100 100 8 5 8 5 5 4 0 5 13 5 5 5 90 97 12 55 100 49 13 18 5 13 70 95 9 5 5
2 0 2 36 87 85 100 30 22 58 5 5 54 81 99 100 69 4 49 60 2 0 0 4 5 82 5 5 5 8 40 10 62 100 100 70 9 38 70 29 32 38 76 38
2 0 2 49 72 58 99 75 66 5 100 91 68 39 99 99 62 39 12 0 0 5 5 5 5 100 5 5 5 5 5 93 41 44 36 35 5 16 100 100 99 52 5 14
24 2 2 74 78 53 74 41 24 69 100 9 41 93 47 100 73 5 0 0 1 5 5 2 5 100 5 5 5 14 56 22 18 52 100 56 30 44 97 38 22 44 30 17
5 1 34 17 100 39 57 100 100 99 100 100 100 49 5 99 18 5 5 5 5 5 5 3 5 48 13 5 39 76 20 81 17 38 99 41 5 7 78 26 45 57 86 66
5 0 98 97 88 94 100 32 10 93 100 95 25 88 88 5 5 5 5 5 5 4 5 53 5 28 54 5 33 85 54 5 5 5 10 5 5 4 5 70 95 14 45 94
6 54 5 55 99 100 100 100 96 100 95 24 99 100 7 5 5 2 2 5 3 5 5 49 5 25 35 5 65 93 9 5 5 5 5 5 13 64 58 52 99 69 5 10
10 100 93 12 100 62 99 92 93 5 100 23 43 93 6 5 0 0 2 54 6 5 5 34 5 20 5 7 90 92 3 5 5 62 97 76 5 18 88 100 100 100 100 41
53 87 100 100 100 100 100 69 90 100 98 39 45 8 5 4 0 0 66 10 70 56 13 53 5 5 5 5 37 10 100 79 5 71 59 69 28 12 23 100 91 100 25 69
97 96 100 80 100 100 18 76 100 64 28 13 6 5 5 0 0 1 5 12 15 34 5 39 6 5 5 5 5 100 5 5 16 100 65 41 82 5 5 5 9 100 94 35
100 100 100 100 100 78 28 100 64 99 77 70 36 5 5 4 1 1 10 5 5 5 5 5 34 49 34 5 7 33 5 5 7 35 8 5 25 5 5 5 5 9 6 5
100 94 100 100 100 59 68 82 100 54 97 100 13 5 3 0 0 5 5 5 5 5 89 5 100 97 6 5 5 5 6 82 43 5 7 81 97 5 5 15 5 5 5 0
100 99 100 100 100 100 100 100 100 100 100 82 5 5 5 0 1 5 18 5 5 5 65 5 67 19 30 6 5 5 5 75 50 19 5 5 13 49 80 40 5 5 5 5
88 100 100 100 100 100 100 97 100 100 7 7 5 5 2 1 5 23 6 3 70 64 40 24 6 5 18 5 5 8 6 6 98 54 5 13 18 100 100 62 42 5 5 5

GFSCGP_prec_cloud_288.txt.gz
Cloud_Cover
0 1 51 21 99 55 80 5 4 29 72 98 80 100 71 100 100 100 100 100 100 100 100 100 100 100 100 97 100 100 94 5 5 5 4 4 5 0 0 57 94 100 100 100
2 5 3 99 42 68 4 5 4 5 81 74 82 100 100 100 100 100 100 100 100 100 100 100 100 100 100 100 100 91 36 7 12 20 1 0 0 4 5 6 70 100 99 96
1 4 58 83 23 48 27 5 51 55 52 100 70 85 100 100 100 100 100 100 100 100 100 100 100 100 77 48 9 5 5 5 8 5 5 5 5 5 8 50 91 91 89 82
5 18 13 12 5 5 49 82 52 79 0 63 5 100 100 91 97 91 98 100 100 100 100 100 69 19 5 15 31 5 68 14 6 6 12 46 89 43 5 5 9 84 100 95
52 32 100 26 5 32 90 76 91 58 5 5 5 28 89 71 88 98 97 24 95 75 78 6 18 99 100 77 95 5 5 18 92 46 54 99 74 36 11 16 89 91 88 90
5 7 5 5 6 35 5 69 69 29 0 0 5 5 72 86 83 100 26 5 10 32 17 26 100 98 27 2 4 14 23 0 3 100 11 6 5 5 5 5 6 43 56 66
45 7 4 31 100 33 10 5 1 11 3 48 5 18 38 56 39 66 100 59 94 100 84 100 48 5 5 4 2 0 0 2 5 8 5 5 5 5 5 5 9 7 14 84
5 5 5 6 9 17 1 4 3 6 7 13 7 54 69 69 82 9 27 95 100 70 94 3 0 0 0 0 0 0 4 5 5 5 7 6 19 5 5 5 5 5 5 37
72 70 1 5 38 67 97 65 2 5 0 4 15 97 100 92 61 73 79 100 100 100 84 5 0 0 0 0 4 5 40 78 59 5 13 85 12 96 34 47 100 84 89 100
5 2 0 6 63 85 34 10 1 0 4 41 52 21 89 26 74 89 18 74 98 11 4 5 2 0 0 4 5 5 93 93 5 6 66 12 5 31 73 94 54 73 100 96
100 100 6 4 4 0 0 0 3 1 5 5 57 35 5 5 74 79 52 44 5 5 4 5 0 4 1 5 5 17 68 5 5 32 44 63 5 11 5 24 5 100 100 99
6 5 5 5 1 62 5 0 0 63 36 5 4 63 48 60 56 36 6 5 5 0 5 5 5 3 1 5 11 22 5 5 50 6 34 100 16 9 5 5 5 5 14 9
12 5 0 8 71 20 1 2 5 16 84 0 4 10 16 23 5 5 5 5 5 1 42 5 5 0 3 17 10 5 5 5 70 5 15 5 100 67 10 5 5 5 5 5
0 0 0 4 75 5 7 5 5 5 6 2 5 11 34 100 5 5 19 10 5 5 72 5 1 0 5 44 13 5 5 5 85 46 5 5 93 33 99 100 82 5 5 18
0 0 1 29 81 33 5 5 2 5 17 5 5 5 100 6 6 5 5 5 5 9 69 6 3 4 5 75 5 5 5 5 46 92 14 5 5 87 52 49 32 5 8 5
0 0 34 100 98 73 42 49 6 85 43 0 15 100 8 12 85 5 5 5 5 85 29 3 5 5 5 92 5 5 5 5 27 98 8 5 7 79 35 99 100 56 95 100
1 4 5 86 100 53 59 96 100 100 100 96 65 75 21 8 15 5 5 8 93 12 1 5 5 5 9 45 5 5 5 5 5 5 5 5 5 100 100 25 97 100 25 98
38 21 5 53 60 100 100 98 93 74 100 69 86 94 18 7 5 1 14 95 5 5 5 5 5 5 47 5 6 5 5 5 5 5 5 5 5 31 100 100 18 60 12 8
100 86 72 89 97 94 100 100 100 100 99 98 99 96 44 6 5 5 0 0 5 5 5 5 5 5 5 5 5 5 5 5 9 5 5 5 69 100 100 84 84 5 5 5
100 100 100 100 100 100 100 100 100 100 100 100 66 27 6 18 5 0 0 78 5 5 5 5 5 5 5 5 30 3 5 5 92 98 87 28 23 82 80 84 100 100 70 8
100 100 100 100 100 100 100 100 100 100 96 17 27 90 100 27 2 0 5 5 5 5 5 5 5 5 5 5 80 3 5 8 37 74 42 5 2 0 1 6 97 46 100 96
100 100 100 100 100 100 100 100 100 100 92 95 99 100 94 5 5 0 5 5 5 5 5 5 5 5 5 5 45 56 5 68 92 5 5 2 4 5 1 2 30 5 5 8
100 100 100 100 100 100 100 100 100 100 84 10 8 100 12 5 3 0 5 5 5 5 5 5 15 5 5 5 8 5 5 5 5 5 5 69 5 5 5 6 5 5 5 5
64 46 99 100 100 100 100 100 100 100 54 7 96 17 5 5 2 2 5 5 0 4 5 5 23 5 5 5 5 5 42 5 5 5 23 11 98 100 100 60 5 5 5 5
100 100 100 90 100 100 100 100 100 100 70 5 9 5 5 5 3 0 5 5 4 2 5 5 5 5 5 5 5 5 5 14 97 5 8 36 66 100 100 74 5 5 5 5
100 100 71 95 100 100 100 100 100 98 95 61 22 5 5 4 0 0 5 3 0 62 5 7 5 5 5 5 5 5 24 57 91 5 5 16 72 100 74 5 5 5 5 5

GFSCGP_prec_cloud_291.txt.gz
Cloud_Cover
50 100 70 88 4 15 85 9 5 42 36 55 86 25 88 58 80 100 23 29 100 100 100 100 100 100 100 100 100 100 100 100 96 48 5 5 5 2 5 5 5 5 94 94
5 56 95 4 15 26 74 82 63 8 17 77 85 100 100 100 100 94 75 96 79 95 99 98 100 100 100 100 100 100 68 5 1 5 2 2 5 5 33 64 86 100 100 52
0 11 0 5 18 5 8 78 100 91 98 100 97 100 100 100 99 97 90 60 57 54 16 6 6 5 97 100 83 29 5 4 6 13 3 0 5 5 5 10 68 96 100 99
1 4 51 70 94 100 94 34 87 94 100 49 15 99 35 53 94 62 73 34 10 10 12 66 5 18 100 51 2 3 8 20 12 1 1 5 5 8 5 8 6 7 93 100
5 27 76 30 31 100 33 13 67 59 70 22 33 86 82 75 100 87 30 59 2 5 4 42 65 59 51 5 5 20 30 22 0 5 5 5 5 5 5 5 5 5 5 22
46 44 50 70 100 100 100 100 42 54 35 0 1 13 34 39 66 29 75 52 29 13 14 5 3 17 2 8 52 24 0 1 5 5 5 5 5 5 12 5 10 12 5 5
5 5 5 5 6 71 63 31 8 5 5 2 0 2 5 8 65 78 37 5 5 5 10 5 5 0 8 38 2 0 3 5 5 5 5 5 5 82 6 9 25 11 20 52
5 12 17 5 5 4 0 2 1 4 29 11 4 41 14 15 46 5 5 5 2 5 5 5 5 5 5 5 1 5 5 5 5 5 5 9 27 19 14 96 89 85 74 100
30 10 9 15 95 100 100 86 4 4 0 2 15 82 92 95 34 5 5 4 2 5 5 5 5 5 5 1 4 6 46 5 5 5 5 5 79 5 11 18 30 100 100 99
2 2 5 3 13 94 99 9 2 0 0 18 44 14 72 79 24 5 5 5 5 5 5 5 24 16 4 5 5 21 11 5 5 5 5 5 5 5 5 5 99 91 91 96
8 28 14 3 0 2 1 0 0 0 0 5 63 82 28 3 5 5 5 5 11 9 5 64 74 16 0 5 5 5 5 10 5 5 5 8 5 7 5 6 22 10 17 26
6 4 1 0 4 5 5 0 0 3 5 5 1 5 0 5 5 5 2 5 8 14 73 99 100 37 1 5 5 5 5 5 5 5 5 87 97 60 58 10 5 5 5 5
0 0 0 4 16 16 4 3 0 5 0 0 2 1 5 5 3 4 5 7 50 79 100 100 100 16 0 5 5 5 5 5 17 5 5 5 41 98 61 90 5 5 5 5
0 0 0 0 0 0 5 1 5 1 0 0 1 4 5 5 5 5 15 74 100 100 100 100 72 0 0 5 32 5 5 5 49 25 5 8 44 35 64 19 30 5 5 5
0 2 5 25 48 16 73 1 2 5 5 5 5 5 5 5 5 54 78 100 93 100 100 87 3 5 4 5 7 5 5 5 31 9 5 76 91 72 100 100 99 100 100 81
0 33 100 100 84 23 72 5 54 100 13 5 5 5 5 6 92 54 84 33 76 100 97 3 5 5 5 5 5 5 5 5 5 5 10 100 100 97 26 100 82 100 100 100
4 20 65 100 89 88 83 71 5 6 5 5 75 7 5 12 5 42 5 39 100 80 5 5 5 5 5 5 5 5 5 5 5 5 5 23 99 96 5 5 21 28 62 100
84 100 100 100 100 100 100 87 99 100 77 100 100 10 5 8 5 5 23 100 15 5 5 5 5 5 5 5 5 5 5 5 5 5 10 99 71 77 5 5 5 5 3 0
100 100 100 100 100 100 100 100 100 100 100 77 60 96 25 26 7 16 2 1 5 5 5 5 5 5 5 5 5 5 5 5 8 5 6 31 48 79 87 8 5 5 5 4
76 98 100 100 100 100 100 100 100 100 100 100 100 100 5 10 72 10 3 3 5 5 5 5 5 5 5 5 5 5 5 42 96 50 5 2 0 5 6 74 41 76 88 3
33 100 100 100 100 100 100 99 98 100 100 98 100 35 6 12 5 3 0 5 5 5 5 5 5 5 5 5 8 5 6 34 7 5 3 1 0 0 1 67 18 5 99 5
100 99 100 100 100 100 100 100 100 100 100 100 100 100 6 5 3 0 5 5 5 5 5 5 5 5 5 4 2 5 5 36 9 5 5 5 5 5 5 5 5 5 5 5
55 100 100 100 100 100 100 100 100 100 100 100 100 59 5 5 5 3 5 5 5 5 5 5 5 5 5 5 5 5 5 5 5 74 10 27 100 100 98 6 5 5 5 5
100 97 89 73 84 90 87 100 100 100 100 95 18 5 5 5 5 2 5 5 5 2 5 5 5 5 5 5 5 5 5 6 5 5 22 100 100 100 17 70 5 5 5 5
13 4 35 6 70 100 100 90 96 55 14 5 5 5 36 5 2 0 0 4 2 4 1 5 9 5 5 5 5 5 6 70 13 5 40 43 56 99 9 35 8 5 5 5
21 67 13 5 51 71 89 85 98 94 100 8 5 6 20 6 5 5 5 2 1 0 5 14 16 12 5 5 5 5 5 75 71 6 12 13 99 80 49 33 59 56 21 5